Regional Weather Roundup
Issued by NWS

Home | Current Version | Previous Version | Graphics & Text | Print | Product List | Glossary On
Versions: 1 2 3 4 5 6 7 8 9 10 11 12 13 14 15 16 17 18 19 20 21 22 23 24 25 26 27 28 29 30 31 32 33 34 35 36 37 38 39 40 41 42 43 44 45 46 47 48 49 50
000
ASUS44 KMEG 010210
RWRTN
TENNESSEE HOURLY STATE WEATHER ROUNDUP
NATIONAL WEATHER SERVICE MEMPHIS TN
900 PM CDT FRI JUL 31 2015

TNZ002-004-019-021-049-052-054-088>092-010300-
WEST TENNESSEE

CITY           SKY/WX    TMP DP  RH WIND       PRES   REMARKS
MEMPHIS INTL   CLEAR     84  63  49 N7        30.03R
NWS MEMPHIS      N/A     81 N/A N/A MISG        N/A
JACKSON        CLEAR     75  67  76 CALM      30.03R
DYERSBURG        N/A    N/A N/A N/A MISG        N/A
PARIS          CLEAR     70  68  94 CALM      30.05R
LEXINGTON      CLEAR     73  68  83 CALM      30.03R
$$

TNZ008-025-027-028-033-062-065-066-010300-
NORTH MIDDLE TENNESSEE

CITY           SKY/WX    TMP DP  RH WIND       PRES   REMARKS
NASHVILLE      PTCLDY    79  61  53 N7        30.03R
CLARKSVILLE    CLEAR     75  68  78 CALM      30.03R
SMYRNA         CLEAR     76  65  68 CALM      30.03R
CROSSVILLE     CLEAR     72  59  63 N5        30.09R
$$

TNZ061-075-076-078-094-096-097-010300-
SOUTH MIDDLE TENNESSEE

CITY           SKY/WX    TMP DP  RH WIND       PRES   REMARKS
FAYETTEVILLE   CLEAR     75  57  53 CALM      30.03R
TULLAHOMA      CLEAR     72  61  68 CALM      30.05R
WINCHESTER     CLEAR     70  63  78 CALM      30.04R
MCMINNVILLE    CLEAR     70  64  83 CALM      30.05R
COLUMBIA       CLEAR     75  64  69 CALM      30.02R
SHELBYVILLE    CLEAR     73  66  78 CALM      30.04R
$$

TNZ017-018-042-046-047-010300-
NORTHEAST TENNESSEE

CITY           SKY/WX    TMP DP  RH WIND       PRES   REMARKS
TRI CITIES     CLEAR     71  59  65 CALM      30.04R
ELIZABETHTON   CLEAR     64  57  77 CALM      30.06R
$$

TNZ012-013-036-069-073-074-010300-
CENTRAL EAST TENNESSEE

CITY           SKY/WX    TMP DP  RH WIND       PRES   REMARKS
KNOXVILLE      CLEAR     76  61  59 N6        30.01R
OAK RIDGE      CLEAR     75  64  68 CALM      30.04R
GATLINBURG     CLEAR     72  61  68 CALM      30.02R
MORRISTOWN     CLEAR     73  63  68 CALM      30.05R
$$

TNZ083-085-099-010300-
SOUTHEAST TENNESSEE

CITY           SKY/WX    TMP DP  RH WIND       PRES   REMARKS
CHATTANOOGA    PTCLDY    78  63  59 N6        30.00R
$$

SKY/WX REPORTED AS FAIR MEANS FEW OR NO CLOUDS BELOW
12 THOUSAND FEET.



USA.gov is the U.S. government's official web portal to all federal, state and local government web resources and services.